This demonstration page uses our WeatherBlox Daily Observations layout. Learn more.

Left ArrowRight Arrow

Hourly Observations for October 30, 2021

Temp ( °F °C ) Dew Point ( °F °C ) Humidity (%) Winds ( mph kmh ) Pressure ( in mb ) Visibility ( mi km ) Precip ( " mm )
12:53 am 00:53 Clear 37 2.8 32 undefined 82 82 SSW 3 6 29.95 1014 10 16 N/A
1:53 am 01:53 Clear 40 4.4 29 -1.7 65 65 SSW 6 9 29.93 1014 10 16 N/A
2:53 am 02:53 Clear 41 5 28 -2.2 60 60 SSW 3 6 29.92 1013 10 16 N/A
3:53 am 03:53 Clear 41 5 28 -2.2 60 60 SSW 6 9 29.91 1013 10 16 N/A
4:53 am 04:53 Clear 40 4.4 28 -2.2 63 63 S 5 7 29.89 1012 10 16 N/A
5:53 am 05:53 Clear 40 4.4 28 -2.2 63 63 S 7 11 29.87 1012 10 16 N/A
6:53 am 06:53 Clear 39 3.9 28 -2.2 65 65 SSW 7 11 29.87 1012 10 16 N/A
7:53 am 07:53 Clear 39 3.9 28 -2.2 65 65 SSW 8 13 29.86 1011 10 16 N/A
8:53 am 08:53 Sunny 41 5 29 -1.7 62 62 SSW 8 13 29.85 1011 10 16 N/A
9:53 am 09:53 Sunny 49 9.4 33 0.6 55 55 SSW 6 9 29.85 1011 10 16 N/A
10:53 am 10:53 Sunny 54 12.2 37 2.8 53 53 SW 10 17 29.83 1010 10 16 N/A
11:53 am 11:53 Sunny 60 15.6 38 3.3 44 44 W 10 17 29.83 1010 10 16 N/A
12:53 pm 12:53 Sunny 64 17.8 38 3.3 38 38 NW 15 24 29.82 1010 10 16 N/A
1:53 pm 13:53 Sunny 65 18.3 40 4.4 40 40 NW 16 26 29.82 1010 10 16 N/A
2:53 pm 14:53 Sunny 66 18.9 42 5.6 42 42 NNW 18 30 29.82 1010 10 16 N/A
3:53 pm 15:53 Sunny 66 18.9 43 6.1 43 43 N 21 33 29.85 1011 10 16 N/A
4:53 pm 16:53 Sunny 64 17.8 43 6.1 46 46 NNE 20 31 29.88 1012 10 16 N/A
5:53 pm 17:53 Sunny 60 15.6 44 6.7 56 56 N 18 30 29.92 1013 10 16 N/A
6:53 pm 18:53 Clear 55 12.8 43 6.1 64 64 N 23 37 29.98 1015 10 16 N/A
7:53 pm 19:53 Clear 51 10.6 41 5 69 69 N 18 30 30.02 1017 10 16 N/A
8:53 pm 20:53 Clear 49 9.4 40 4.4 71 71 N 21 33 30.05 1018 10 16 N/A
9:53 pm 21:53 Clear 48 8.9 39 3.9 71 71 N 16 26 30.06 1018 10 16 N/A
10:53 pm 22:53 Clear 45 7.2 38 3.3 77 77 N 15 24 30.08 1019 10 16 N/A
11:53 pm 23:53 Clear 44 6.7 37 2.8 76 76 N 16 26 30.11 1020 10 16 N/A

Powered by AerisWeather